Satellite: ISS
Catalog number: 25544
Epoch time:      08331.55056713
Element set:     734
Inclination:      051.6445 deg
RA of node:       264.1420 deg
Eccentricity:    0.0007009
Arg of perigee:   031.6634 deg
Mean anomaly:     301.7668 deg
Mean motion:   15.71561244 rev/day
Decay rate:     4.0469e-04 rev/day^2
Epoch rev:           57407
Checksum:              284

Satellite: CO-58
Catalog number: 28895
Epoch time:      08331.71675471
Element set:     179
Inclination:      098.0816 deg
RA of node:       221.7151 deg
Eccentricity:    0.0016794
Arg of perigee:   261.2238 deg
Mean anomaly:     098.7093 deg
Mean motion:   14.59718157 rev/day
Decay rate:        4.7e-07 rev/day^2
Epoch rev:           16419
Checksum:              344

Satellite: FALCON
Catalog number: 30776
Epoch time:      08331.91804740
Element set:     447
Inclination:      035.4341 deg
RA of node:       246.4866 deg
Eccentricity:    0.0001801
Arg of perigee:   329.5112 deg
Mean anomaly:     030.5492 deg
Mean motion:   15.03112726 rev/day
Decay rate:       3.44e-06 rev/day^2
Epoch rev:            9464
Checksum:              269

Satellite: MAST
Catalog number: 31126
Epoch time:      08332.19238511
Element set:     470
Inclination:      098.0195 deg
RA of node:       029.9383 deg
Eccentricity:    0.0094643
Arg of perigee:   186.0760 deg
Mean anomaly:     173.9316 deg
Mean motion:   14.53459918 rev/day
Decay rate:       -2.8e-07 rev/day^2
Epoch rev:            8569
Checksum:              318

Satellite: CAPE1
Catalog number: 31130
Epoch time:      08331.82390129
Element set:     463
Inclination:      098.0219 deg
RA of node:       028.2251 deg
Eccentricity:    0.0102799
Arg of perigee:   191.1468 deg
Mean anomaly:     168.7450 deg
Mean motion:   14.52011370 rev/day
Decay rate:        4.8e-07 rev/day^2
Epoch rev:            8532
Checksum:              273

Satellite: COMPASS
Catalog number: 32787
Epoch time:      08332.16447954
Element set:     211
Inclination:      097.9700 deg
RA of node:       031.4158 deg
Eccentricity:    0.0015257
Arg of perigee:   332.7640 deg
Mean anomaly:     027.2771 deg
Mean motion:   14.81503979 rev/day
Decay rate:       2.33e-06 rev/day^2
Epoch rev:            3153
Checksum:              288

Satellite: AAUSAT2
Catalog number: 32788
Epoch time:      08332.14864031
Element set:     211
Inclination:      097.9723 deg
RA of node:       031.4303 deg
Eccentricity:    0.0014850
Arg of perigee:   334.5477 deg
Mean anomaly:     025.5005 deg
Mean motion:   14.81619315 rev/day
Decay rate:       5.44e-06 rev/day^2
Epoch rev:            3153
Checksum:              269

Satellite: DO-64
Catalog number: 32789
Epoch time:      08332.23162634
Element set:     222
Inclination:      097.9745 deg
RA of node:       031.5702 deg
Eccentricity:    0.0015079
Arg of perigee:   331.6920 deg
Mean anomaly:     028.3468 deg
Mean motion:   14.81543164 rev/day
Decay rate:       5.47e-06 rev/day^2
Epoch rev:            3154
Checksum:              300

Satellite: CO-66
Catalog number: 32791
Epoch time:      08331.23956857
Element set:     204
Inclination:      097.9740 deg
RA of node:       030.5215 deg
Eccentricity:    0.0015679
Arg of perigee:   334.0665 deg
Mean anomaly:     025.9758 deg
Mean motion:   14.81349248 rev/day
Decay rate:        3.0e-07 rev/day^2
Epoch rev:            3136
Checksum:              314

Satellite: RS-30
Catalog number: 32953
Epoch time:      08331.67752604
Element set:     168
Inclination:      082.5039 deg
RA of node:       022.5426 deg
Eccentricity:    0.0017812
Arg of perigee:   259.0851 deg
Mean anomaly:     100.8225 deg
Mean motion:   12.42998359 rev/day
Decay rate:        1.0e-07 rev/day^2
Epoch rev:            2323
Checksum:              281

/EX



_______________________________________________
Via the Keps mailing list courtesy of AMSAT-NA
http://amsat.org/mailman/listinfo/keps

--- ViaMAIL!/WC v1.60d
 * Origin: Chowdanet (401-724-4410) telnet://chowdanet.com  (1:323/120)